Location: Alfortville
(48.8058°N, 2.4204°E)
Time: 22:02:46
(UTC+00:00)

SR - Pass Details

Date: 24 April 2026
Orbit: 568 x 852 km, 66.7° (Epoch: 19 May)

Event Time Altitude Azimuth Distance (km) Brightness Sun altitude
Rises 20:36:40 0° 323° (NW) 3,299 ? -15.0°
Reaches altitude 10° 20:39:03 10° 323° (NW) 2,400 ? -15.3°
Maximum altitude 20:44:38 80° 237° (WSW) 855 ? -16.0°
Enters shadow 20:48:11 24° 153° (SSE) 1,671 ? -16.4°
